When you browse on this site, cookies collect data to enhance your experience and personalize the content and advertising you see.
Visit our Privacy Policy to learn more. By continuing to use the site, you agree to this use of cookies and data.
  • In France
  • List of Countries
  • For 7 days
  • Water Temperature
  • Satellite Maps
  • Weather Map
  • Weather Widgets
  • user-avatar
    Login

    Hourly Weather Giumri

    Today, 24 April, Wednesday

    Time Temperature Precipitation Wind Pressure Humidity
    00:00 +1°C° 0 mm 1 mps 638 mmHg 80%
    01:00 +1°C° 0 mm 1 mps 638 mmHg 80%
    02:00 +1°C° 0 mm 1 mps 638 mmHg 80%
    03:00 -1°C° 0 mm 2 mps 637 mmHg 80%
    04:00 -1°C° 0 mm 2 mps 638 mmHg 78%
    05:00 +1°C° 0 mm 1 mps 638 mmHg 77%
    06:00 +1°C° 0 mm 1 mps 638 mmHg 75%
    07:00 +3°C° 0 mm 1 mps 639 mmHg 67%
    08:00 +4°C° 0 mm 1 mps 639 mmHg 59%
    09:00 +5°C° 0 mm 2 mps 639 mmHg 52%
    10:00 +6°C° 0 mm 2 mps 639 mmHg 50%
    11:00 +7°C° 0 mm 2 mps 639 mmHg 47%
    12:00 +10°C° 0 mm 1 mps 639 mmHg 44%
    13:00 +10°C° 0 mm 1 mps 639 mmHg 44%
    14:00 +10°C° 0 mm 1 mps 639 mmHg 44%
    15:00 +10°C° 0 mm 1 mps 638 mmHg 44%
    16:00 +10°C° 0.1 mm 1 mps 638 mmHg 47%
    17:00 +9°C° 0.1 mm 1 mps 638 mmHg 50%
    18:00 +9°C° 0.1 mm 1 mps 638 mmHg 52%
    19:00 +7°C° 0.1 mm 1 mps 638 mmHg 59%
    20:00 +6°C° 0.1 mm 1 mps 638 mmHg 65%
    21:00 +5°C° 0.1 mm 1 mps 638 mmHg 71%
    22:00 +4°C° 0.1 mm 1 mps 638 mmHg 75%
    23:00 +4°C° 0.1 mm 1 mps 638 mmHg 78%

    Tomorrow, 25 April, Thursday

    Time Temperature Precipitation Wind Pressure Humidity
    00:00 +3°C° 0.1 mm 2 mps 638 mmHg 82%
    01:00 +2°C° 0 mm 2 mps 638 mmHg 83%
    02:00 +2°C° 0 mm 2 mps 638 mmHg 85%
    03:00 +1°C° 0 mm 2 mps 638 mmHg 86%
    04:00 +2°C° 0 mm 1 mps 638 mmHg 85%
    05:00 +2°C° 0 mm 1 mps 638 mmHg 83%
    06:00 +2°C° 0 mm 1 mps 638 mmHg 82%
    07:00 +4°C° 0 mm 1 mps 639 mmHg 73%
    08:00 +6°C° 0 mm 1 mps 639 mmHg 64%
    09:00 +7°C° 0 mm 1 mps 639 mmHg 55%
    10:00 +8°C° 0 mm 1 mps 639 mmHg 52%
    11:00 +9°C° 0 mm 1 mps 639 mmHg 49%
    12:00 +10°C° 0 mm 1 mps 639 mmHg 47%
    13:00 +9°C° 0 mm 2 mps 639 mmHg 46%
    14:00 +10°C° 0 mm 2 mps 638 mmHg 45%
    15:00 +10°C° 0 mm 2 mps 638 mmHg 45%
    16:00 +10°C° 0.1 mm 2 mps 638 mmHg 48%
    17:00 +9°C° 0.1 mm 2 mps 638 mmHg 51%
    18:00 +8°C° 0.1 mm 2 mps 638 mmHg 55%
    19:00 +7°C° 0 mm 2 mps 638 mmHg 61%
    20:00 +6°C° 0 mm 2 mps 638 mmHg 67%
    21:00 +4°C° 0 mm 2 mps 638 mmHg 73%
    22:00 +5°C° 0 mm 1 mps 638 mmHg 75%
    23:00 +4°C° 0 mm 1 mps 638 mmHg 78%

    Day after tomorrow, 26 April, Friday

    Time Temperature Precipitation Wind Pressure Humidity
    00:00 +4°C° 0 mm 1 mps 638 mmHg 80%
    01:00 +3°C° 0 mm 1 mps 638 mmHg 81%
    02:00 +3°C° 0 mm 1 mps 638 mmHg 81%
    03:00 +3°C° 0 mm 1 mps 637 mmHg 81%
    04:00 +3°C° 0 mm 1 mps 637 mmHg 81%
    05:00 +3°C° 0 mm 1 mps 637 mmHg 80%
    06:00 +3°C° 0 mm 1 mps 637 mmHg 79%
    07:00 +5°C° 0 mm 1 mps 638 mmHg 72%
    08:00 +7°C° 0 mm 1 mps 638 mmHg 64%
    09:00 +9°C° 0 mm 1 mps 638 mmHg 57%
    10:00 +9°C° 0 mm 2 mps 638 mmHg 54%
    11:00 +10°C° 0 mm 2 mps 638 mmHg 51%
    12:00 +12°C° 0 mm 2 mps 638 mmHg 48%
    13:00 +12°C° 0.1 mm 2 mps 637 mmHg 48%
    14:00 +12°C° 0.1 mm 2 mps 637 mmHg 47%
    15:00 +12°C° 0.1 mm 2 mps 637 mmHg 47%
    16:00 +12°C° 0.1 mm 2 mps 637 mmHg 51%
    17:00 +10°C° 0.1 mm 2 mps 636 mmHg 54%
    18:00 +9°C° 0.1 mm 2 mps 636 mmHg 58%
    19:00 +8°C° 0 mm 2 mps 636 mmHg 64%
    20:00 +6°C° 0 mm 2 mps 636 mmHg 71%
    21:00 +6°C° 0 mm 1 mps 636 mmHg 77%
    22:00 +5°C° 0 mm 1 mps 636 mmHg 80%
    23:00 +5°C° 0 mm 1 mps 636 mmHg 83%

    27 April, Saturday

    Time Temperature Precipitation Wind Pressure Humidity
    00:00 +4°C° 0 mm 1 mps 636 mmHg 86%
    01:00 +4°C° 0 mm 1 mps 636 mmHg 88%
    02:00 +4°C° 0 mm 1 mps 636 mmHg 89%
    03:00 +4°C° 0 mm 1 mps 636 mmHg 91%
    04:00 +4°C° 0 mm 1 mps 636 mmHg 90%
    05:00 +4°C° 0 mm 1 mps 636 mmHg 89%
    06:00 +4°C° 0 mm 1 mps 636 mmHg 88%
    07:00 +6°C° 0 mm 1 mps 636 mmHg 78%
    08:00 +8°C° 0 mm 1 mps 636 mmHg 68%
    09:00 +8°C° 0 mm 2 mps 636 mmHg 57%
    10:00 +9°C° 0 mm 2 mps 636 mmHg 53%
    11:00 +12°C° 0 mm 2 mps 636 mmHg 48%
    12:00 +12°C° 0 mm 3 mps 636 mmHg 44%
    13:00 +12°C° 0 mm 3 mps 636 mmHg 42%
    14:00 +12°C° 0 mm 3 mps 636 mmHg 41%
    15:00 +13°C° 0 mm 3 mps 635 mmHg 39%
    16:00 +12°C° 0 mm 3 mps 635 mmHg 42%
    17:00 +12°C° 0 mm 2 mps 635 mmHg 45%
    18:00 +12°C° 0 mm 2 mps 635 mmHg 48%
    19:00 +9°C° 0 mm 2 mps 634 mmHg 52%
    20:00 +9°C° 0 mm 1 mps 634 mmHg 56%
    21:00 +7°C° 0 mm 1 mps 634 mmHg 60%
    22:00 +6°C° 0 mm 1 mps 634 mmHg 62%
    23:00 +6°C° 0 mm 1 mps 634 mmHg 64%

    28 April, Sunday

    Time Temperature Precipitation Wind Pressure Humidity
    00:00 +5°C° 0 mm 1 mps 634 mmHg 65%
    01:00 +5°C° 0 mm 1 mps 634 mmHg 64%
    02:00 +5°C° 0 mm 1 mps 633 mmHg 63%
    03:00 +5°C° 0 mm 1 mps 633 mmHg 61%
    04:00 +5°C° 0 mm 1 mps 633 mmHg 60%
    05:00 +5°C° 0 mm 1 mps 633 mmHg 60%
    06:00 +5°C° 0 mm 1 mps 633 mmHg 59%
    07:00 +7°C° 0 mm 1 mps 633 mmHg 55%
    08:00 +8°C° 0 mm 2 mps 634 mmHg 52%
    09:00 +10°C° 0 mm 3 mps 634 mmHg 48%
    10:00 +11°C° 0 mm 3 mps 634 mmHg 47%
    11:00 +13°C° 0 mm 3 mps 634 mmHg 45%
    12:00 +14°C° 0 mm 3 mps 634 mmHg 43%
    13:00 +14°C° 0.1 mm 3 mps 634 mmHg 43%
    14:00 +15°C° 0.1 mm 4 mps 634 mmHg 43%
    15:00 +15°C° 0.1 mm 4 mps 633 mmHg 43%
    16:00 +14°C° 0.1 mm 3 mps 633 mmHg 46%
    17:00 +14°C° 0.1 mm 3 mps 633 mmHg 49%
    18:00 +14°C° 0.1 mm 2 mps 633 mmHg 52%
    19:00 +13°C° 0 mm 2 mps 633 mmHg 57%
    20:00 +10°C° 0 mm 2 mps 633 mmHg 61%
    21:00 +9°C° 0 mm 1 mps 633 mmHg 66%
    22:00 +9°C° 0 mm 1 mps 633 mmHg 67%
    23:00 +8°C° 0 mm 1 mps 633 mmHg 68%

    29 April, Monday

    Time Temperature Precipitation Wind Pressure Humidity
    00:00 +8°C° 0 mm 1 mps 632 mmHg 69%
    01:00 +8°C° 0 mm 1 mps 632 mmHg 71%
    02:00 +7°C° 0 mm 1 mps 632 mmHg 72%
    03:00 +7°C° 0 mm 1 mps 632 mmHg 73%
    04:00 +7°C° 0.1 mm 1 mps 632 mmHg 75%
    05:00 +8°C° 0.1 mm 1 mps 632 mmHg 76%
    06:00 +8°C° 0.1 mm 1 mps 632 mmHg 77%
    07:00 +8°C° 0.1 mm 2 mps 633 mmHg 72%
    08:00 +10°C° 0.1 mm 2 mps 633 mmHg 68%
    09:00 +12°C° 0.1 mm 3 mps 634 mmHg 63%
    10:00 +13°C° 0.2 mm 4 mps 634 mmHg 60%
    11:00 +13°C° 0.2 mm 4 mps 634 mmHg 57%
    12:00 +14°C° 0.2 mm 4 mps 634 mmHg 54%
    13:00 +14°C° 0.5 mm 5 mps 633 mmHg 54%
    14:00 +14°C° 0.5 mm 5 mps 633 mmHg 55%
    15:00 +14°C° 0.5 mm 6 mps 633 mmHg 55%
    16:00 +13°C° 0.8 mm 5 mps 633 mmHg 61%
    17:00 +12°C° 0.8 mm 4 mps 633 mmHg 67%
    18:00 +12°C° 0.8 mm 2 mps 633 mmHg 72%
    19:00 +10°C° 0.1 mm 2 mps 633 mmHg 76%
    20:00 +10°C° 0.1 mm 1 mps 633 mmHg 80%
    21:00 +9°C° 0.1 mm 1 mps 633 mmHg 84%
    22:00 +8°C° 0 mm 1 mps 632 mmHg 85%
    23:00 +8°C° 0 mm 1 mps 632 mmHg 85%
    Show more